Tracking 29093 objects as of 14-Jul-2024
HD Live streaming from Space Station
objects crossing your sky now

ATLAS 5 CENTAUR DEB

Track ATLAS 5 CENTAUR DEB now!


NORAD ID: 46657
Int'l Code: 2018-079CK
Perigee: 8,456.0 km
Apogee: 38,173.6 km
Inclination: 10.8 °
Period: 848.4 minutes
Semi major axis: 29685 km
RCS: Unknown
Launch date: October 17, 2018
Source: United States (US)
Launch site: AIR FORCE EASTERN TEST RANGE (AFETR)

Note: This is SATELLITE DEBRIS
Your satellite tracking list
Your tracking list is empty




NASA's NSSDC Master Catalog

Two Line Element Set (TLE):
1 46657U 18079CK  24196.39439852 -.00000144  00000-0  00000+0 0  9997
2 46657  10.7863  80.5295 5005369 220.4609  88.7700  1.69738272 23386
Source of the keplerian elements: AFSPC